Time,TemperatureF,DewpointF,PressureIn,WindDirection,WindDirectionDegrees,WindSpeedMPH,WindSpeedGustMPH,Humidity,HourlyPrecipIn,Conditions,Clouds,dailyrainin,SoftwareType,DateUTC
2013-01-28 00:01:00,68.6,56.8,29.94,East,95,5.0,7.0,66,0.00,,---,0.00,VWS V14.01,2013-01-28 10:01:00,
2013-01-28 00:06:00,68.6,56.8,29.94,East,101,5.0,6.0,66,0.00,,---,0.00,VWS V14.01,2013-01-28 10:06:00,
2013-01-28 00:11:00,68.7,56.9,29.94,ESE,118,4.0,7.0,66,0.00,,---,0.00,VWS V14.01,2013-01-28 10:11:00,
2013-01-28 00:16:00,68.8,56.6,29.94,SE,132,3.0,7.0,65,0.00,,---,0.00,VWS V14.01,2013-01-28 10:16:00,
2013-01-28 00:21:00,68.9,56.7,29.94,SE,138,4.0,7.0,65,0.00,,---,0.00,VWS V14.01,2013-01-28 10:21:00,
2013-01-28 00:26:00,68.8,56.6,29.94,ESE,123,4.0,7.0,65,0.00,,---,0.00,VWS V14.01,2013-01-28 10:26:00,
2013-01-28 00:31:00,68.8,56.6,29.94,ESE,114,7.0,9.0,65,0.00,,---,0.00,VWS V14.01,2013-01-28 10:31:00,
2013-01-28 00:36:00,68.9,56.7,29.94,East,97,5.0,8.0,65,0.00,,---,0.00,VWS V14.01,2013-01-28 10:36:00,
2013-01-28 00:41:00,68.9,56.7,29.94,SE,132,5.0,10.0,65,0.00,,---,0.00,VWS V14.01,2013-01-28 10:41:00,
2013-01-28 00:46:00,68.9,56.7,29.94,ESE,103,3.0,10.0,65,0.00,,---,0.00,VWS V14.01,2013-01-28 10:46:00,
2013-01-28 00:51:00,69.0,56.8,29.94,ESE,107,4.0,10.0,65,0.00,,---,0.00,VWS V14.01,2013-01-28 10:51:00,
2013-01-28 00:56:00,69.1,56.8,29.94,ESE,112,4.0,10.0,65,0.00,,---,0.00,VWS V14.01,2013-01-28 10:56:00,
2013-01-28 01:02:00,69.1,57.3,29.94,East,95,7.0,10.0,66,0.00,,---,0.00,VWS V14.01,2013-01-28 11:02:00,
2013-01-28 01:07:00,69.1,57.3,29.94,ESE,109,3.0,7.0,66,0.00,,---,0.00,VWS V14.01,2013-01-28 11:07:00,
2013-01-28 01:12:00,69.2,57.4,29.94,ESE,120,2.0,9.0,66,0.00,,---,0.00,VWS V14.01,2013-01-28 11:12:00,
2013-01-28 01:17:00,69.3,57.5,29.93,SE,130,3.0,9.0,66,0.00,,---,0.00,VWS V14.01,2013-01-28 11:17:00,
2013-01-28 01:22:00,69.3,57.0,29.93,East,99,7.0,9.0,65,0.00,,---,0.00,VWS V14.01,2013-01-28 11:22:00,
2013-01-28 01:27:00,69.3,57.0,29.93,ESE,115,4.0,9.0,65,0.00,,---,0.00,VWS V14.01,2013-01-28 11:27:00,
2013-01-28 01:32:00,69.2,57.0,29.92,SE,130,3.0,9.0,65,0.00,,---,0.00,VWS V14.01,2013-01-28 11:32:00,
2013-01-28 01:37:00,69.0,56.3,29.92,ESE,112,4.0,8.0,64,0.00,,---,0.00,VWS V14.01,2013-01-28 11:37:00,
2013-01-28 01:42:00,68.8,56.1,29.92,SE,127,5.0,8.0,64,0.00,,---,0.00,VWS V14.01,2013-01-28 11:42:00,
2013-01-28 01:47:00,68.6,56.0,29.92,ESE,119,3.0,8.0,64,0.00,,---,0.00,VWS V14.01,2013-01-28 11:47:00,
2013-01-28 01:52:00,68.4,55.8,29.93,ESE,119,3.0,8.0,64,0.00,,---,0.00,VWS V14.01,2013-01-28 11:52:00,
2013-01-28 01:57:00,68.2,56.0,29.92,SE,134,2.0,8.0,65,0.00,,---,0.00,VWS V14.01,2013-01-28 11:57:00,
2013-01-28 02:02:00,68.0,56.2,29.92,SE,130,1.0,8.0,66,0.00,,---,0.00,VWS V14.01,2013-01-28 12:02:00,
2013-01-28 02:07:00,67.9,56.1,29.92,ESE,108,3.0,5.0,66,0.00,,---,0.00,VWS V14.01,2013-01-28 12:07:00,
2013-01-28 02:12:00,67.8,56.0,29.92,SE,125,4.0,5.0,66,0.00,,---,0.00,VWS V14.01,2013-01-28 12:12:00,
2013-01-28 02:17:00,67.9,56.1,29.92,SE,125,2.0,5.0,66,0.00,,---,0.00,VWS V14.01,2013-01-28 12:17:00,
2013-01-28 02:22:00,67.9,56.1,29.92,SE,127,1.0,5.0,66,0.00,,---,0.00,VWS V14.01,2013-01-28 12:22:00,
2013-01-28 02:27:00,68.1,55.9,29.92,ESE,107,3.0,7.0,65,0.00,,---,0.00,VWS V14.01,2013-01-28 12:27:00,
2013-01-28 02:32:00,68.2,56.0,29.91,ESE,113,5.0,7.0,65,0.00,,---,0.00,VWS V14.01,2013-01-28 12:32:00,
2013-01-28 02:38:00,68.3,55.7,29.91,ESE,119,5.0,7.0,64,0.00,,---,0.00,VWS V14.01,2013-01-28 12:38:00,
2013-01-28 02:43:00,68.5,55.9,29.91,SE,129,5.0,9.0,64,0.00,,---,0.00,VWS V14.01,2013-01-28 12:43:00,
2013-01-28 02:48:00,68.6,56.0,29.90,ESE,114,7.0,9.0,64,0.00,,---,0.00,VWS V14.01,2013-01-28 12:48:00,
2013-01-28 02:53:00,68.7,56.0,29.91,ESE,115,5.0,9.0,64,0.00,,---,0.00,VWS V14.01,2013-01-28 12:53:00,
2013-01-28 02:58:00,68.7,56.0,29.91,ESE,106,4.0,9.0,64,0.00,,---,0.00,VWS V14.01,2013-01-28 12:58:00,
2013-01-28 03:03:00,68.7,56.0,29.90,SE,129,9.0,9.0,64,0.00,,---,0.00,VWS V14.01,2013-01-28 13:03:00,
2013-01-28 03:08:00,68.9,56.7,29.90,ESE,106,4.0,9.0,65,0.00,,---,0.00,VWS V14.01,2013-01-28 13:08:00,
2013-01-28 03:13:00,68.6,56.4,29.90,SE,132,3.0,9.0,65,0.00,,---,0.00,VWS V14.01,2013-01-28 13:13:00,
2013-01-28 03:18:00,68.5,56.3,29.90,SE,125,2.0,9.0,65,0.00,,---,0.00,VWS V14.01,2013-01-28 13:18:00,
2013-01-28 03:23:00,68.4,56.2,29.90,ESE,111,2.0,9.0,65,0.00,,---,0.00,VWS V14.01,2013-01-28 13:23:00,
2013-01-28 03:28:00,68.4,56.2,29.90,SE,128,1.0,9.0,65,0.00,,---,0.00,VWS V14.01,2013-01-28 13:28:00,
2013-01-28 03:33:00,68.4,56.2,29.90,ESE,121,2.0,9.0,65,0.00,,---,0.00,VWS V14.01,2013-01-28 13:33:00,
2013-01-28 03:38:00,68.3,56.5,29.90,ESE,121,0.0,2.0,66,0.00,,---,0.00,VWS V14.01,2013-01-28 13:38:00,
2013-01-28 03:43:00,68.3,56.5,29.90,ESE,121,0.0,2.0,66,0.00,,---,0.00,VWS V14.01,2013-01-28 13:43:00,
2013-01-28 03:48:00,68.2,56.4,29.90,ESE,121,0.0,2.0,66,0.00,,---,0.00,VWS V14.01,2013-01-28 13:48:00,
2013-01-28 03:53:00,68.3,56.5,29.90,ESE,121,2.0,2.0,66,0.00,,---,0.00,VWS V14.01,2013-01-28 13:53:00,
2013-01-28 03:58:00,68.1,56.3,29.90,SE,128,2.0,4.0,66,0.00,,---,0.00,VWS V14.01,2013-01-28 13:58:00,
2013-01-28 04:03:00,67.8,56.0,29.90,SE,132,3.0,5.0,66,0.00,,---,0.00,VWS V14.01,2013-01-28 14:03:00,
2013-01-28 04:08:00,68.0,56.2,29.90,ESE,115,3.0,5.0,66,0.00,,---,0.00,VWS V14.01,2013-01-28 14:08:00,
2013-01-28 04:13:00,68.1,55.9,29.91,SE,132,3.0,6.0,65,0.00,,---,0.00,VWS V14.01,2013-01-28 14:13:00,
2013-01-28 04:18:00,68.2,55.6,29.90,ESE,111,4.0,6.0,64,0.00,,---,0.00,VWS V14.01,2013-01-28 14:18:00,
2013-01-28 04:23:00,68.3,55.7,29.90,SE,137,4.0,6.0,64,0.00,,---,0.00,VWS V14.01,2013-01-28 14:23:00,
2013-01-28 04:28:00,68.5,55.4,29.90,East,97,7.0,8.0,63,0.00,,---,0.00,VWS V14.01,2013-01-28 14:28:00,
2013-01-28 04:33:00,68.7,54.7,29.90,ESE,116,4.0,10.0,61,0.00,,---,0.00,VWS V14.01,2013-01-28 14:33:00,
2013-01-28 04:38:00,68.8,54.4,29.90,East,100,3.0,9.0,60,0.00,,---,0.00,VWS V14.01,2013-01-28 14:38:00,
2013-01-28 04:43:00,69.0,54.1,29.90,East,92,2.0,9.0,59,0.00,,---,0.00,VWS V14.01,2013-01-28 14:43:00,
2013-01-28 04:48:00,69.1,53.7,29.90,ESE,115,3.0,9.0,58,0.00,,---,0.00,VWS V14.01,2013-01-28 14:48:00,
2013-01-28 04:54:00,69.2,53.3,29.90,East,101,5.0,9.0,57,0.00,,---,0.00,VWS V14.01,2013-01-28 14:54:00,
2013-01-28 04:59:00,69.2,53.3,29.90,ESE,105,5.0,9.0,57,0.00,,---,0.00,VWS V14.01,2013-01-28 14:59:00,
2013-01-28 05:04:00,69.2,53.3,29.90,East,101,3.0,9.0,57,0.00,,---,0.00,VWS V14.01,2013-01-28 15:04:00,
2013-01-28 05:09:00,69.2,52.8,29.90,ESE,123,3.0,8.0,56,0.00,,---,0.00,VWS V14.01,2013-01-28 15:09:00,
2013-01-28 05:14:00,69.4,53.0,29.90,SE,132,5.0,9.0,56,0.00,,---,0.00,VWS V14.01,2013-01-28 15:14:00,
2013-01-28 05:19:00,69.9,53.5,29.90,ESE,107,5.0,9.0,56,0.00,,---,0.00,VWS V14.01,2013-01-28 15:19:00,
2013-01-28 05:24:00,70.1,53.2,29.90,ESE,123,4.0,9.0,55,0.00,,---,0.00,VWS V14.01,2013-01-28 15:24:00,
2013-01-28 05:29:00,70.2,52.8,29.90,East,94,5.0,9.0,54,0.00,,---,0.00,VWS V14.01,2013-01-28 15:29:00,
2013-01-28 05:34:00,70.2,52.8,29.90,ESE,120,3.0,3.0,54,0.00,,---,0.00,VWS V14.01,2013-01-28 15:34:00,
2013-01-28 05:39:00,70.3,52.9,29.90,SE,130,5.0,7.0,54,0.00,,---,0.00,VWS V14.01,2013-01-28 15:39:00,
2013-01-28 05:44:00,70.3,52.9,29.91,SE,129,3.0,7.0,54,0.00,,---,0.00,VWS V14.01,2013-01-28 15:44:00,
2013-01-28 05:49:00,70.2,53.3,29.90,ESE,103,2.0,7.0,55,0.00,,---,0.00,VWS V14.01,2013-01-28 15:49:00,
2013-01-28 05:54:00,70.0,53.6,29.90,ESE,103,2.0,7.0,56,0.00,,---,0.00,VWS V14.01,2013-01-28 15:54:00,
2013-01-28 05:59:00,69.8,53.9,29.90,ESE,104,1.0,7.0,57,0.00,,---,0.00,VWS V14.01,2013-01-28 15:59:00,
2013-01-28 06:05:00,69.5,54.1,29.91,East,91,2.0,5.0,58,0.00,,---,0.00,VWS V14.01,2013-01-28 16:05:00,
2013-01-28 06:10:00,69.4,54.0,29.91,East,92,3.0,7.0,58,0.00,,---,0.00,VWS V14.01,2013-01-28 16:10:00,
2013-01-28 06:15:00,69.5,53.6,29.91,ESE,117,2.0,8.0,57,0.00,,---,0.00,VWS V14.01,2013-01-28 16:15:00,
2013-01-28 06:20:00,69.5,53.6,29.91,ESE,105,3.0,8.0,57,0.00,,---,0.00,VWS V14.01,2013-01-28 16:20:00,
2013-01-28 06:25:00,69.7,53.8,29.92,ESE,105,4.0,8.0,57,0.00,,---,0.00,VWS V14.01,2013-01-28 16:25:00,
2013-01-28 06:30:00,69.9,54.9,29.92,ESE,112,3.0,8.0,59,0.00,,---,0.00,VWS V14.01,2013-01-28 16:30:00,
2013-01-28 06:35:00,70.0,55.0,29.92,East,96,1.0,5.0,59,0.00,,---,0.00,VWS V14.01,2013-01-28 16:35:00,
2013-01-28 06:40:00,70.0,55.5,29.93,SE,128,2.0,5.0,60,0.00,,---,0.00,VWS V14.01,2013-01-28 16:40:00,
2013-01-28 06:45:00,70.1,55.1,29.93,East,93,2.0,7.0,59,0.00,,---,0.00,VWS V14.01,2013-01-28 16:45:00,
2013-01-28 06:51:00,70.2,55.2,29.93,ESE,115,4.0,7.0,59,0.00,,---,0.00,VWS V14.01,2013-01-28 16:51:00,
2013-01-28 06:56:00,70.2,55.7,29.93,ESE,103,3.0,7.0,60,0.00,,---,0.00,VWS V14.01,2013-01-28 16:56:00,
2013-01-28 07:01:00,70.2,54.8,29.93,ESE,105,5.0,7.0,58,0.00,,---,0.00,VWS V14.01,2013-01-28 17:01:00,
2013-01-28 07:06:00,70.4,54.9,29.93,ESE,115,2.0,7.0,58,0.00,,---,0.00,VWS V14.01,2013-01-28 17:06:00,
2013-01-28 07:11:00,70.4,55.4,29.94,ESE,123,4.0,8.0,59,0.00,,---,0.00,VWS V14.01,2013-01-28 17:11:00,
2013-01-28 07:16:00,70.4,55.4,29.94,ESE,110,3.0,8.0,59,0.00,,---,0.00,VWS V14.01,2013-01-28 17:16:00,
2013-01-28 07:21:00,70.4,55.9,29.94,East,101,5.0,8.0,60,0.00,,---,0.00,VWS V14.01,2013-01-28 17:21:00,
2013-01-28 07:26:00,70.5,56.0,29.94,ESE,109,3.0,8.0,60,0.00,,---,0.00,VWS V14.01,2013-01-28 17:26:00,
2013-01-28 07:31:00,70.4,55.9,29.93,East,93,1.0,8.0,60,0.00,,---,0.00,VWS V14.01,2013-01-28 17:31:00,
2013-01-28 07:36:00,70.4,55.4,29.94,East,84,1.0,3.0,59,0.00,,---,0.00,VWS V14.01,2013-01-28 17:36:00,
2013-01-28 07:41:00,70.6,55.1,29.95,ESE,110,2.0,4.0,58,0.00,,---,0.00,VWS V14.01,2013-01-28 17:41:00,
2013-01-28 07:46:00,70.6,55.6,29.94,ENE,78,3.0,5.0,59,0.00,,---,0.00,VWS V14.01,2013-01-28 17:46:00,
2013-01-28 07:51:00,70.8,55.3,29.95,East,95,1.0,5.0,58,0.00,,---,0.00,VWS V14.01,2013-01-28 17:51:00,
2013-01-28 07:56:00,71.0,56.0,29.95,East,80,5.0,5.0,59,0.00,,---,0.00,VWS V14.01,2013-01-28 17:56:00,
2013-01-28 08:01:00,71.3,56.2,29.95,East,88,3.0,5.0,59,0.00,,---,0.00,VWS V14.01,2013-01-28 18:01:00,
2013-01-28 08:06:00,71.5,56.0,29.95,East,82,1.0,6.0,58,0.00,,---,0.00,VWS V14.01,2013-01-28 18:06:00,
2013-01-28 08:12:00,71.6,57.0,29.95,ENE,78,1.0,6.0,60,0.00,,---,0.00,VWS V14.01,2013-01-28 18:12:00,
2013-01-28 08:17:00,71.6,57.5,29.95,ENE,76,1.0,6.0,61,0.00,,---,0.00,VWS V14.01,2013-01-28 18:17:00,
2013-01-28 08:19:00,76.9,60.0,29.96,East,87,1.0,2.0,56,0.00,,---,0.00,VWS V14.01,2013-01-28 18:19:00,
2013-01-28 08:22:00,71.9,57.3,29.95,East,79,1.0,6.0,60,0.00,,---,0.00,VWS V14.01,2013-01-28 18:22:00,
2013-01-28 08:25:00,76.7,61.3,29.96,ENE,71,2.0,2.0,59,0.00,,---,0.00,VWS V14.01,2013-01-28 18:25:00,
2013-01-28 08:27:00,72.3,57.7,29.95,East,80,2.0,6.0,60,0.00,,---,0.00,VWS V14.01,2013-01-28 18:27:00,
2013-01-28 08:30:00,77.1,61.2,29.96,NE,38,2.0,3.0,58,0.00,,---,0.00,VWS V14.01,2013-01-28 18:30:00,
2013-01-28 08:31:00,77.3,60.9,29.96,NE,38,1.0,2.0,57,0.00,,---,0.00,VWS V14.01,2013-01-28 18:31:00,
2013-01-28 08:32:00,72.9,58.2,29.95,East,97,2.0,6.0,60,0.00,,---,0.00,VWS V14.01,2013-01-28 18:32:00,
2013-01-28 08:33:00,77.4,61.5,29.96,NE,38,1.0,2.0,58,0.00,,---,0.00,VWS V14.01,2013-01-28 18:33:00,
2013-01-28 08:34:00,77.3,59.9,29.96,NE,38,0.0,2.0,55,0.00,,---,0.00,VWS V14.01,2013-01-28 18:34:00,
2013-01-28 08:35:00,77.2,60.3,29.96,NE,38,0.0,2.0,56,0.00,,---,0.00,VWS V14.01,2013-01-28 18:35:00,
2013-01-28 08:37:00,73.4,58.2,29.95,East,86,6.0,6.0,59,0.00,,---,0.00,VWS V14.01,2013-01-28 18:37:00,
2013-01-28 08:40:00,77.5,62.1,29.96,NE,38,0.0,2.0,59,0.00,,---,0.00,VWS V14.01,2013-01-28 18:40:00,
2013-01-28 08:41:00,77.6,61.7,29.96,NE,38,1.0,2.0,58,0.00,,---,0.00,VWS V14.01,2013-01-28 18:41:00,
2013-01-28 08:42:00,73.7,59.0,29.94,East,80,1.0,6.0,60,0.00,,---,0.00,VWS V14.01,2013-01-28 18:42:00,
2013-01-28 08:43:00,77.8,62.3,29.96,NE,38,1.0,2.0,59,0.00,,---,0.00,VWS V14.01,2013-01-28 18:43:00,
2013-01-28 08:44:00,77.9,62.4,29.96,NE,38,1.0,2.0,59,0.00,,---,0.00,VWS V14.01,2013-01-28 18:44:00,
2013-01-28 08:45:00,77.8,62.3,29.96,NE,38,1.0,2.0,59,0.00,,---,0.00,VWS V14.01,2013-01-28 18:45:00,
2013-01-28 08:46:00,77.7,62.7,29.96,NE,38,2.0,2.0,60,0.00,,---,0.00,VWS V14.01,2013-01-28 18:46:00,
2013-01-28 08:47:00,74.1,58.9,29.95,East,86,1.0,6.0,59,0.00,,---,0.00,VWS V14.01,2013-01-28 18:47:00,
2013-01-28 08:48:00,77.5,62.5,29.96,NE,38,1.0,2.0,60,0.00,,---,0.00,VWS V14.01,2013-01-28 18:48:00,
2013-01-28 08:50:00,77.3,60.9,29.96,North,9,3.0,3.0,57,0.00,,---,0.00,VWS V14.01,2013-01-28 18:50:00,
2013-01-28 08:52:00,74.5,58.8,29.95,East,86,1.0,6.0,58,0.00,,---,0.00,VWS V14.01,2013-01-28 18:52:00,
2013-01-28 08:53:00,77.2,62.2,29.96,NNW,344,3.0,4.0,60,0.00,,---,0.00,VWS V14.01,2013-01-28 18:53:00,
2013-01-28 08:54:00,77.1,62.2,29.96,NNW,343,3.0,4.0,60,0.00,,---,0.00,VWS V14.01,2013-01-28 18:54:00,
2013-01-28 08:55:00,77.1,62.2,29.96,NNW,343,3.0,4.0,60,0.00,,---,0.00,VWS V14.01,2013-01-28 18:55:00,
2013-01-28 08:57:00,75.1,59.3,29.96,East,86,0.0,6.0,58,0.00,,---,0.00,VWS V14.01,2013-01-28 18:57:00,
2013-01-28 09:02:00,75.5,59.2,29.95,East,86,0.0,6.0,57,0.00,,---,0.00,VWS V14.01,2013-01-28 19:02:00,
2013-01-28 09:03:00,77.7,62.7,29.95,NNW,343,4.0,4.0,60,0.00,,---,0.00,VWS V14.01,2013-01-28 19:03:00,
2013-01-28 09:04:00,77.7,62.7,29.95,NNW,342,4.0,4.0,60,0.00,,---,0.00,VWS V14.01,2013-01-28 19:04:00,
2013-01-28 09:05:00,77.7,62.7,29.96,NNW,341,4.0,5.0,60,0.00,,---,0.00,VWS V14.01,2013-01-28 19:05:00,
2013-01-28 09:06:00,77.8,62.8,29.96,NNW,341,4.0,5.0,60,0.00,,---,0.00,VWS V14.01,2013-01-28 19:06:00,
2013-01-28 09:07:00,76.0,60.2,29.96,East,86,0.0,0.0,58,0.00,,---,0.00,VWS V14.01,2013-01-28 19:07:00,
2013-01-28 09:08:00,77.8,63.3,29.96,NNW,337,3.0,5.0,61,0.00,,---,0.00,VWS V14.01,2013-01-28 19:08:00,
2013-01-28 09:09:00,77.9,63.4,29.96,NNW,337,4.0,5.0,61,0.00,,---,0.00,VWS V14.01,2013-01-28 19:09:00,
2013-01-28 09:10:00,78.1,63.1,29.96,NNW,337,5.0,5.0,60,0.00,,---,0.00,VWS V14.01,2013-01-28 19:10:00,
2013-01-28 09:12:00,76.5,60.2,29.96,East,86,0.0,2.0,57,0.00,,---,0.00,VWS V14.01,2013-01-28 19:12:00,
2013-01-28 09:15:00,78.3,63.3,29.96,NNW,337,0.0,5.0,60,0.00,,---,0.00,VWS V14.01,2013-01-28 19:15:00,
2013-01-28 09:16:00,78.2,63.2,29.96,NNW,337,1.0,5.0,60,0.00,,---,0.00,VWS V14.01,2013-01-28 19:16:00,
2013-01-28 09:17:00,77.0,59.6,29.96,East,87,0.0,2.0,55,0.00,,---,0.00,VWS V14.01,2013-01-28 19:17:00,
2013-01-28 09:18:00,78.0,63.0,29.95,NNW,337,1.0,5.0,60,0.00,,---,0.00,VWS V14.01,2013-01-28 19:18:00,
2013-01-28 09:22:00,77.0,60.6,29.96,East,87,1.0,2.0,57,0.00,,---,0.00,VWS V14.01,2013-01-28 19:22:00,
2013-01-28 09:23:00,78.0,63.5,29.95,NNW,336,2.0,5.0,61,0.00,,---,0.00,VWS V14.01,2013-01-28 19:23:00,
2013-01-28 09:24:00,78.2,63.7,29.95,NNW,336,2.0,5.0,61,0.00,,---,0.00,VWS V14.01,2013-01-28 19:24:00,
2013-01-28 09:30:00,78.4,63.4,29.94,NNW,336,4.0,5.0,60,0.00,,---,0.00,VWS V14.01,2013-01-28 19:30:00,
2013-01-28 09:31:00,78.4,63.4,29.94,NNW,327,5.0,5.0,60,0.00,,---,0.00,VWS V14.01,2013-01-28 19:31:00,
2013-01-28 09:32:00,76.9,61.0,29.96,NE,40,2.0,3.0,58,0.00,,---,0.00,VWS V14.01,2013-01-28 19:32:00,
2013-01-28 09:37:00,78.2,63.2,29.95,NW,316,3.0,5.0,60,0.00,,---,0.00,VWS V14.01,2013-01-28 19:37:00,
2013-01-28 09:39:00,78.1,63.1,29.95,NW,312,3.0,5.0,60,0.00,,---,0.00,VWS V14.01,2013-01-28 19:39:00,
2013-01-28 09:40:00,77.2,60.3,29.97,NE,38,0.0,2.0,56,0.00,,---,0.00,VWS V14.01,2013-01-28 19:40:00,
2013-01-28 09:46:00,77.7,61.8,29.96,NE,38,0.0,2.0,58,0.00,,---,0.00,VWS V14.01,2013-01-28 19:46:00,
2013-01-28 09:53:00,77.4,62.4,29.96,NNE,28,2.0,3.0,60,0.00,,---,0.00,VWS V14.01,2013-01-28 19:53:00,
2013-01-28 10:00:00,77.1,62.2,29.96,NNW,343,3.0,4.0,60,0.00,,---,0.00,VWS V14.01,2013-01-28 20:00:00,
2013-01-28 10:05:00,77.6,62.6,29.96,NNW,343,2.0,2.0,60,0.00,,---,0.00,VWS V14.01,2013-01-28 20:05:00,
2013-01-28 10:15:00,78.2,63.2,29.96,NNW,337,4.0,5.0,60,0.00,,---,0.00,VWS V14.01,2013-01-28 20:15:00,
2013-01-28 10:23:00,77.9,62.9,29.95,NNW,337,1.0,5.0,60,0.00,,---,0.00,VWS V14.01,2013-01-28 20:23:00,
2013-01-28 10:29:00,78.2,63.7,29.95,NNW,336,3.0,5.0,61,0.00,,---,0.00,VWS V14.01,2013-01-28 20:29:00,
2013-01-28 10:34:00,78.4,63.8,29.95,NNW,336,4.0,5.0,61,0.00,,---,0.00,VWS V14.01,2013-01-28 20:34:00,
2013-01-28 10:39:00,78.4,62.9,29.95,NNW,327,2.0,5.0,59,0.00,,---,0.00,VWS V14.01,2013-01-28 20:39:00,
2013-01-28 10:44:00,77.9,63.4,29.95,NW,308,2.0,5.0,61,0.00,,---,0.00,VWS V14.01,2013-01-28 20:44:00,
2013-01-28 10:49:00,77.8,63.8,29.94,WNW,302,4.0,5.0,62,0.00,,---,0.00,VWS V14.01,2013-01-28 20:49:00,
2013-01-28 10:55:00,77.8,63.3,29.95,WNW,294,5.0,5.0,61,0.00,,---,0.00,VWS V14.01,2013-01-28 20:55:00,
2013-01-28 11:00:00,77.1,63.1,29.94,WNW,289,4.0,6.0,62,0.00,,---,0.00,VWS V14.01,2013-01-28 21:00:00,
2013-01-28 11:05:00,77.2,62.7,29.94,WNW,290,4.0,5.0,61,0.00,,---,0.00,VWS V14.01,2013-01-28 21:05:00,
2013-01-28 11:10:00,77.3,64.2,29.94,WNW,297,4.0,5.0,64,0.00,,---,0.00,VWS V14.01,2013-01-28 21:10:00,
2013-01-28 11:15:00,77.2,63.6,29.94,WNW,296,5.0,6.0,63,0.00,,---,0.00,VWS V14.01,2013-01-28 21:15:00,
2013-01-28 11:20:00,77.0,63.9,29.94,WNW,289,5.0,7.0,64,0.00,,---,0.00,VWS V14.01,2013-01-28 21:20:00,
2013-01-28 11:25:00,77.4,64.3,29.94,WNW,292,6.0,7.0,64,0.00,,---,0.00,VWS V14.01,2013-01-28 21:25:00,
2013-01-28 11:30:00,77.5,64.8,29.93,NW,308,5.0,7.0,65,0.00,,---,0.00,VWS V14.01,2013-01-28 21:30:00,
2013-01-28 11:35:00,77.6,64.9,29.93,NW,315,5.0,6.0,65,0.00,,---,0.00,VWS V14.01,2013-01-28 21:35:00,
2013-01-28 11:40:00,77.5,65.3,29.92,NNW,327,7.0,8.0,66,0.00,,---,0.00,VWS V14.01,2013-01-28 21:40:00,
2013-01-28 11:45:00,77.5,64.8,29.92,NW,326,8.0,8.0,65,0.00,,---,0.00,VWS V14.01,2013-01-28 21:45:00,
2013-01-28 11:50:00,77.9,64.8,29.92,NW,326,8.0,9.0,64,0.00,,---,0.00,VWS V14.01,2013-01-28 21:50:00,
2013-01-28 11:55:00,77.6,64.5,29.92,WNW,294,5.0,9.0,64,0.00,,---,0.00,VWS V14.01,2013-01-28 21:55:00,
2013-01-28 12:00:00,77.4,64.7,29.92,WNW,301,4.0,9.0,65,0.00,,---,0.00,VWS V14.01,2013-01-28 22:00:00,
2013-01-28 12:05:00,77.4,65.2,29.92,WNW,288,4.0,7.0,66,0.00,,---,0.00,VWS V14.01,2013-01-28 22:05:00,
2013-01-28 12:10:00,76.8,64.6,29.92,WNW,285,7.0,8.0,66,0.00,,---,0.00,VWS V14.01,2013-01-28 22:10:00,
2013-01-28 12:15:00,77.0,64.8,29.92,WNW,288,7.0,8.0,66,0.00,,---,0.00,VWS V14.01,2013-01-28 22:15:00,
2013-01-28 12:21:00,76.8,65.4,29.91,WNW,284,8.0,10.0,68,0.00,,---,0.00,VWS V14.01,2013-01-28 22:21:00,
2013-01-28 12:26:00,76.9,66.0,29.91,WNW,300,5.0,10.0,69,0.00,,---,0.00,VWS V14.01,2013-01-28 22:26:00,
2013-01-28 12:31:00,77.2,65.4,29.91,NW,312,7.0,10.0,67,0.00,,---,0.00,VWS V14.01,2013-01-28 22:31:00,
2013-01-28 12:36:00,77.1,65.7,29.90,WNW,302,8.0,9.0,68,0.00,,---,0.00,VWS V14.01,2013-01-28 22:36:00,
2013-01-28 12:41:00,77.0,66.1,29.90,WNW,289,10.0,10.0,69,0.00,,---,0.00,VWS V14.01,2013-01-28 22:41:00,
2013-01-28 12:46:00,76.8,65.9,29.90,WNW,284,8.0,10.0,69,0.00,,---,0.00,VWS V14.01,2013-01-28 22:46:00,
2013-01-28 12:51:00,76.7,66.2,29.90,WNW,294,7.0,10.0,70,0.00,,---,0.00,VWS V14.01,2013-01-28 22:51:00,
2013-01-28 12:56:00,76.7,66.6,29.90,WNW,284,6.0,10.0,71,0.00,,---,0.00,VWS V14.01,2013-01-28 22:56:00,
2013-01-28 13:01:00,76.9,66.8,29.89,WNW,288,7.0,10.0,71,0.00,,---,0.00,VWS V14.01,2013-01-28 23:01:00,
2013-01-28 13:06:00,76.9,66.8,29.89,WNW,296,6.0,8.0,71,0.00,,---,0.00,VWS V14.01,2013-01-28 23:06:00,
2013-01-28 13:11:00,77.1,67.0,29.89,WNW,301,5.0,9.0,71,0.00,,---,0.00,VWS V14.01,2013-01-28 23:11:00,
2013-01-28 13:16:00,77.2,67.5,29.89,WNW,299,6.0,10.0,72,0.00,,---,0.00,VWS V14.01,2013-01-28 23:16:00,
2013-01-28 13:21:00,77.0,67.3,29.89,WNW,290,7.0,10.0,72,0.00,,---,0.00,VWS V14.01,2013-01-28 23:21:00,
2013-01-28 13:26:00,77.0,67.7,29.89,WNW,295,6.0,10.0,73,0.00,,---,0.00,VWS V14.01,2013-01-28 23:26:00,
2013-01-28 13:32:00,77.2,67.9,29.89,WNW,294,5.0,10.0,73,0.00,,---,0.00,VWS V14.01,2013-01-28 23:32:00,
2013-01-28 13:37:00,76.9,67.6,29.88,WNW,296,5.0,8.0,73,0.00,,---,0.00,VWS V14.01,2013-01-28 23:37:00,
2013-01-28 13:42:00,77.0,67.7,29.88,WNW,284,8.0,9.0,73,0.00,,---,0.00,VWS V14.01,2013-01-28 23:42:00,
2013-01-28 13:47:00,77.0,67.3,29.88,WNW,288,7.0,9.0,72,0.00,,---,0.00,VWS V14.01,2013-01-28 23:47:00,
2013-01-28 13:52:00,76.8,67.5,29.88,WNW,289,9.0,9.0,73,0.00,,---,0.00,VWS V14.01,2013-01-28 23:52:00,
2013-01-28 13:57:00,77.0,67.3,29.88,WNW,290,5.0,9.0,72,0.00,,---,0.00,VWS V14.01,2013-01-28 23:57:00,
2013-01-28 14:02:00,76.9,67.6,29.88,WNW,288,5.0,9.0,73,0.00,,---,0.00,VWS V14.01,2013-01-29 00:02:00,
2013-01-28 14:07:00,76.7,67.0,29.88,WNW,287,4.0,7.0,72,0.00,,---,0.00,VWS V14.01,2013-01-29 00:07:00,
2013-01-28 14:12:00,76.7,67.4,29.87,WNW,293,4.0,7.0,73,0.00,,---,0.00,VWS V14.01,2013-01-29 00:12:00,
2013-01-28 14:17:00,76.6,66.9,29.87,WNW,290,4.0,7.0,72,0.00,,---,0.00,VWS V14.01,2013-01-29 00:17:00,
2013-01-28 14:22:00,76.6,66.9,29.87,WNW,289,4.0,7.0,72,0.00,,---,0.00,VWS V14.01,2013-01-29 00:22:00,
2013-01-28 14:27:00,76.7,67.4,29.86,WNW,299,4.0,7.0,73,0.00,,---,0.00,VWS V14.01,2013-01-29 00:27:00,
2013-01-28 14:32:00,76.7,66.6,29.86,WNW,285,6.0,7.0,71,0.00,,---,0.00,VWS V14.01,2013-01-29 00:32:00,
2013-01-28 14:37:00,76.7,67.0,29.86,WNW,298,4.0,6.0,72,0.00,,---,0.00,VWS V14.01,2013-01-29 00:37:00,
2013-01-28 14:42:00,76.7,67.4,29.86,WNW,291,4.0,7.0,73,0.00,,---,0.00,VWS V14.01,2013-01-29 00:42:00,
2013-01-28 14:47:00,76.9,67.6,29.86,WNW,290,4.0,7.0,73,0.00,,---,0.00,VWS V14.01,2013-01-29 00:47:00,
2013-01-28 14:52:00,76.8,67.1,29.86,WNW,287,5.0,7.0,72,0.00,,---,0.00,VWS V14.01,2013-01-29 00:52:00,
2013-01-28 14:57:00,76.7,67.0,29.86,WNW,289,4.0,7.0,72,0.00,,---,0.00,VWS V14.01,2013-01-29 00:57:00,
2013-01-28 15:02:00,76.5,66.8,29.86,WNW,288,4.0,7.0,72,0.00,,---,0.00,VWS V14.01,2013-01-29 01:02:00,
2013-01-28 15:07:00,76.7,67.4,29.86,WNW,287,5.0,6.0,73,0.00,,---,0.00,VWS V14.01,2013-01-29 01:07:00,
2013-01-28 15:12:00,76.6,67.3,29.86,WNW,285,3.0,6.0,73,0.00,,---,0.00,VWS V14.01,2013-01-29 01:12:00,
2013-01-28 15:18:00,76.6,67.3,29.86,WNW,284,4.0,6.0,73,0.00,,---,0.00,VWS V14.01,2013-01-29 01:18:00,
2013-01-28 15:23:00,76.6,67.3,29.86,WNW,288,5.0,6.0,73,0.00,,---,0.00,VWS V14.01,2013-01-29 01:23:00,
2013-01-28 15:28:00,76.5,67.2,29.86,WNW,289,3.0,6.0,73,0.00,,---,0.00,VWS V14.01,2013-01-29 01:28:00,
2013-01-28 15:33:00,76.6,67.3,29.86,WNW,289,4.0,6.0,73,0.00,,---,0.00,VWS V14.01,2013-01-29 01:33:00,
2013-01-28 15:38:00,76.6,67.7,29.87,WNW,289,3.0,5.0,74,0.00,,---,0.00,VWS V14.01,2013-01-29 01:38:00,
2013-01-28 15:43:00,76.5,67.2,29.87,WNW,288,3.0,5.0,73,0.00,,---,0.00,VWS V14.01,2013-01-29 01:43:00,
2013-01-28 15:48:00,76.5,67.6,29.87,WNW,284,2.0,5.0,74,0.00,,---,0.00,VWS V14.01,2013-01-29 01:48:00,
2013-01-28 15:53:00,76.6,67.3,29.87,WNW,284,3.0,5.0,73,0.00,,---,0.00,VWS V14.01,2013-01-29 01:53:00,
2013-01-28 15:58:00,76.4,67.1,29.87,WNW,291,3.0,6.0,73,0.00,,---,0.00,VWS V14.01,2013-01-29 01:58:00,
2013-01-28 16:03:00,76.5,67.2,29.87,WNW,288,5.0,6.0,73,0.00,,---,0.00,VWS V14.01,2013-01-29 02:03:00,
2013-01-28 16:08:00,76.4,67.1,29.87,WNW,288,6.0,6.0,73,0.00,,---,0.00,VWS V14.01,2013-01-29 02:08:00,
2013-01-28 16:13:00,76.4,67.5,29.87,WNW,288,4.0,6.0,74,0.00,,---,0.00,VWS V14.01,2013-01-29 02:13:00,
2013-01-28 16:18:00,76.2,67.3,29.88,WNW,288,1.0,6.0,74,0.00,,---,0.00,VWS V14.01,2013-01-29 02:18:00,
2013-01-28 16:23:00,76.5,68.0,29.88,WNW,288,3.0,6.0,75,0.00,,---,0.00,VWS V14.01,2013-01-29 02:23:00,
2013-01-28 16:28:00,76.5,68.0,29.88,WNW,288,3.0,6.0,75,0.00,,---,0.00,VWS V14.01,2013-01-29 02:28:00,
2013-01-28 16:33:00,76.2,67.3,29.88,WNW,288,2.0,6.0,74,0.00,,---,0.00,VWS V14.01,2013-01-29 02:33:00,
2013-01-28 16:38:00,76.1,66.8,29.88,WNW,288,2.0,5.0,73,0.00,,---,0.00,VWS V14.01,2013-01-29 02:38:00,
2013-01-28 16:43:00,76.3,67.0,29.88,WNW,290,1.0,5.0,73,0.00,,---,0.00,VWS V14.01,2013-01-29 02:43:00,
2013-01-28 16:48:00,76.4,67.1,29.89,WNW,290,2.0,5.0,73,0.00,,---,0.00,VWS V14.01,2013-01-29 02:48:00,
2013-01-28 16:53:00,76.4,67.1,29.89,NW,305,1.0,5.0,73,0.00,,---,0.00,VWS V14.01,2013-01-29 02:53:00,
2013-01-28 16:59:00,76.5,67.2,29.88,NW,306,4.0,5.0,73,0.00,,---,0.00,VWS V14.01,2013-01-29 02:59:00,
2013-01-28 17:04:00,76.4,67.1,29.88,NW,315,2.0,5.0,73,0.00,,---,0.00,VWS V14.01,2013-01-29 03:04:00,
2013-01-28 17:09:00,76.5,67.6,29.88,NW,315,2.0,4.0,74,0.00,,---,0.00,VWS V14.01,2013-01-29 03:09:00,
2013-01-28 17:14:00,76.4,67.1,29.88,NW,316,5.0,5.0,73,0.00,,---,0.00,VWS V14.01,2013-01-29 03:14:00,
2013-01-28 17:19:00,76.3,67.0,29.89,NW,319,5.0,6.0,73,0.00,,---,0.00,VWS V14.01,2013-01-29 03:19:00,
2013-01-28 17:24:00,76.3,67.0,29.89,NW,319,4.0,6.0,73,0.00,,---,0.00,VWS V14.01,2013-01-29 03:24:00,
2013-01-28 17:29:00,76.3,67.0,29.88,NW,322,5.0,6.0,73,0.00,,---,0.00,VWS V14.01,2013-01-29 03:29:00,
2013-01-28 17:34:00,76.3,67.0,29.89,NW,322,4.0,4.0,73,0.00,,---,0.00,VWS V14.01,2013-01-29 03:34:00,
2013-01-28 17:39:00,76.2,66.9,29.89,NW,322,5.0,6.0,73,0.00,,---,0.00,VWS V14.01,2013-01-29 03:39:00,
2013-01-28 17:44:00,76.2,67.3,29.89,NW,322,4.0,6.0,74,0.00,,---,0.00,VWS V14.01,2013-01-29 03:44:00,
2013-01-28 17:49:00,76.2,67.3,29.89,NW,322,2.0,6.0,74,0.00,,---,0.00,VWS V14.01,2013-01-29 03:49:00,
2013-01-28 17:54:00,76.2,67.3,29.89,NW,322,1.0,6.0,74,0.00,,---,0.00,VWS V14.01,2013-01-29 03:54:00,
2013-01-28 17:59:00,76.0,67.1,29.89,NW,322,5.0,6.0,74,0.00,,---,0.00,VWS V14.01,2013-01-29 03:59:00,
2013-01-28 18:00:00,76.0,67.5,29.91,NW,325,1.0,4.0,75,0.00,,---,0.00,VWS V14.01,2013-01-29 04:00:00,
2013-01-28 18:01:00,76.0,67.1,29.91,NW,325,3.0,3.0,74,0.00,,---,0.00,VWS V14.01,2013-01-29 04:01:00,
2013-01-28 18:02:00,75.9,67.0,29.91,NW,325,2.0,3.0,74,0.00,,---,0.00,VWS V14.01,2013-01-29 04:02:00,
2013-01-28 18:03:00,75.9,67.4,29.91,NW,325,2.0,3.0,75,0.00,,---,0.00,VWS V14.01,2013-01-29 04:03:00,
2013-01-28 18:04:00,76.0,67.5,29.89,NW,322,1.0,3.0,75,0.00,,---,0.00,VWS V14.01,2013-01-29 04:04:00,
2013-01-28 18:05:00,75.8,66.9,29.91,NW,325,0.0,3.0,74,0.00,,---,0.00,VWS V14.01,2013-01-29 04:05:00,
2013-01-28 18:06:00,75.7,66.8,29.91,NW,325,1.0,3.0,74,0.00,,---,0.00,VWS V14.01,2013-01-29 04:06:00,
2013-01-28 18:07:00,75.7,66.8,29.91,NW,325,1.0,3.0,74,0.00,,---,0.00,VWS V14.01,2013-01-29 04:07:00,
2013-01-28 18:08:00,75.7,67.2,29.91,NW,325,1.0,3.0,75,0.00,,---,0.00,VWS V14.01,2013-01-29 04:08:00,
2013-01-28 18:09:00,76.1,67.6,29.90,NW,322,3.0,4.0,75,0.00,,---,0.00,VWS V14.01,2013-01-29 04:09:00,
2013-01-28 18:10:00,75.6,67.1,29.91,NW,325,2.0,3.0,75,0.00,,---,0.00,VWS V14.01,2013-01-29 04:10:00,
2013-01-28 18:11:00,75.6,67.1,29.91,NW,325,1.0,3.0,75,0.00,,---,0.00,VWS V14.01,2013-01-29 04:11:00,
2013-01-28 18:12:00,75.5,67.0,29.91,NW,325,0.0,3.0,75,0.00,,---,0.00,VWS V14.01,2013-01-29 04:12:00,
2013-01-28 18:13:00,75.4,67.3,29.91,NW,325,0.0,3.0,76,0.00,,---,0.00,VWS V14.01,2013-01-29 04:13:00,
2013-01-28 18:14:00,75.4,67.3,29.91,NW,325,0.0,3.0,76,0.00,,---,0.00,VWS V14.01,2013-01-29 04:14:00,
2013-01-28 18:15:00,76.0,67.5,29.90,NW,322,1.0,4.0,75,0.00,,---,0.00,VWS V14.01,2013-01-29 04:15:00,
2013-01-28 18:16:00,75.1,67.4,29.91,NW,325,0.0,3.0,77,0.00,,---,0.00,VWS V14.01,2013-01-29 04:16:00,
2013-01-28 18:17:00,75.0,67.3,29.91,NW,325,0.0,3.0,77,0.00,,---,0.00,VWS V14.01,2013-01-29 04:17:00,
2013-01-28 18:18:00,74.8,67.1,29.91,NW,325,0.0,3.0,77,0.00,,---,0.00,VWS V14.01,2013-01-29 04:18:00,
2013-01-28 18:19:00,74.7,67.0,29.91,NW,325,0.0,3.0,77,0.00,,---,0.00,VWS V14.01,2013-01-29 04:19:00,
2013-01-28 18:20:00,76.0,67.9,29.90,NW,322,3.0,4.0,76,0.00,,---,0.00,VWS V14.01,2013-01-29 04:20:00,
2013-01-28 18:21:00,74.5,67.2,29.91,NW,325,1.0,3.0,78,0.00,,---,0.00,VWS V14.01,2013-01-29 04:21:00,
2013-01-28 18:22:00,74.4,67.1,29.91,NW,325,2.0,3.0,78,0.00,,---,0.00,VWS V14.01,2013-01-29 04:22:00,
2013-01-28 18:23:00,74.4,67.1,29.91,NW,325,0.0,3.0,78,0.00,,---,0.00,VWS V14.01,2013-01-29 04:23:00,
2013-01-28 18:24:00,74.4,67.1,29.91,NW,325,0.0,3.0,78,0.00,,---,0.00,VWS V14.01,2013-01-29 04:24:00,
2013-01-28 18:25:00,76.0,67.5,29.90,NW,325,2.0,4.0,75,0.00,,---,0.00,VWS V14.01,2013-01-29 04:25:00,
2013-01-28 18:26:00,74.4,67.5,29.91,NW,325,0.0,3.0,79,0.00,,---,0.00,VWS V14.01,2013-01-29 04:26:00,
2013-01-28 18:27:00,74.3,67.4,29.91,NW,325,0.0,3.0,79,0.00,,---,0.00,VWS V14.01,2013-01-29 04:27:00,
2013-01-28 18:28:00,74.3,67.4,29.91,NW,325,2.0,3.0,79,0.00,,---,0.00,VWS V14.01,2013-01-29 04:28:00,
2013-01-28 18:29:00,74.3,67.4,29.91,NW,325,0.0,3.0,79,0.00,,---,0.00,VWS V14.01,2013-01-29 04:29:00,
2013-01-28 18:30:00,75.8,67.7,29.90,NW,325,1.0,4.0,76,0.00,,---,0.00,VWS V14.01,2013-01-29 04:30:00,
2013-01-28 18:31:00,74.4,67.5,29.91,NW,325,1.0,1.0,79,0.00,,---,0.00,VWS V14.01,2013-01-29 04:31:00,
2013-01-28 18:32:00,74.4,67.5,29.91,NW,325,0.0,1.0,79,0.00,,---,0.00,VWS V14.01,2013-01-29 04:32:00,
2013-01-28 18:33:00,74.4,67.5,29.91,NW,325,0.0,1.0,79,0.00,,---,0.00,VWS V14.01,2013-01-29 04:33:00,
2013-01-28 18:34:00,74.4,67.5,29.92,NW,325,0.0,1.0,79,0.00,,---,0.00,VWS V14.01,2013-01-29 04:34:00,
2013-01-28 18:35:00,75.8,67.3,29.90,NW,325,0.0,3.0,75,0.00,,---,0.00,VWS V14.01,2013-01-29 04:35:00,
2013-01-28 18:36:00,74.3,67.0,29.92,NW,325,0.0,1.0,78,0.00,,---,0.00,VWS V14.01,2013-01-29 04:36:00,
2013-01-28 18:37:00,74.2,66.9,29.92,NW,325,0.0,1.0,78,0.00,,---,0.00,VWS V14.01,2013-01-29 04:37:00,
2013-01-28 18:38:00,74.2,66.9,29.92,NW,325,0.0,1.0,78,0.00,,---,0.00,VWS V14.01,2013-01-29 04:38:00,
2013-01-28 18:39:00,74.1,66.8,29.92,NW,325,0.0,1.0,78,0.00,,---,0.00,VWS V14.01,2013-01-29 04:39:00,
2013-01-28 18:40:00,75.7,67.2,29.90,NW,325,2.0,3.0,75,0.00,,---,0.00,VWS V14.01,2013-01-29 04:40:00,
2013-01-28 18:41:00,74.1,67.2,29.92,NW,325,0.0,1.0,79,0.00,,---,0.00,VWS V14.01,2013-01-29 04:41:00,
2013-01-28 18:42:00,74.1,67.2,29.92,NW,325,0.0,1.0,79,0.00,,---,0.00,VWS V14.01,2013-01-29 04:42:00,
2013-01-28 18:43:00,74.0,67.1,29.92,NW,325,0.0,1.0,79,0.00,,---,0.00,VWS V14.01,2013-01-29 04:43:00,
2013-01-28 18:44:00,73.9,67.0,29.92,NW,325,0.0,1.0,79,0.00,,---,0.00,VWS V14.01,2013-01-29 04:44:00,
2013-01-28 18:45:00,75.7,67.2,29.91,NW,325,2.0,4.0,75,0.00,,---,0.00,VWS V14.01,2013-01-29 04:45:00,
2013-01-28 18:46:00,73.8,67.2,29.92,NW,325,0.0,1.0,80,0.00,,---,0.00,VWS V14.01,2013-01-29 04:46:00,
2013-01-28 18:47:00,73.7,67.2,29.92,NW,325,0.0,1.0,80,0.00,,---,0.00,VWS V14.01,2013-01-29 04:47:00,
2013-01-28 18:48:00,73.7,67.2,29.92,NW,325,0.0,1.0,80,0.00,,---,0.00,VWS V14.01,2013-01-29 04:48:00,
2013-01-28 18:49:00,73.6,67.1,29.93,NW,325,0.0,1.0,80,0.00,,---,0.00,VWS V14.01,2013-01-29 04:49:00,
2013-01-28 18:50:00,75.8,67.3,29.91,NW,325,4.0,4.0,75,0.00,,---,0.00,VWS V14.01,2013-01-29 04:50:00,
2013-01-28 18:51:00,73.5,67.3,29.92,NW,325,0.0,1.0,81,0.00,,---,0.00,VWS V14.01,2013-01-29 04:51:00,
2013-01-28 18:52:00,73.4,67.2,29.93,NW,325,0.0,1.0,81,0.00,,---,0.00,VWS V14.01,2013-01-29 04:52:00,
2013-01-28 18:53:00,73.4,67.2,29.93,NW,325,0.0,1.0,81,0.00,,---,0.00,VWS V14.01,2013-01-29 04:53:00,
2013-01-28 18:54:00,73.5,67.3,29.93,NW,325,0.0,1.0,81,0.00,,---,0.00,VWS V14.01,2013-01-29 04:54:00,
2013-01-28 18:55:00,75.7,66.4,29.91,NW,325,2.0,4.0,73,0.00,,---,0.00,VWS V14.01,2013-01-29 04:55:00,
2013-01-28 18:56:00,73.7,67.5,29.93,NW,325,0.0,1.0,81,0.00,,---,0.00,VWS V14.01,2013-01-29 04:56:00,
2013-01-28 18:57:00,73.7,67.9,29.93,NW,325,0.0,1.0,82,0.00,,---,0.00,VWS V14.01,2013-01-29 04:57:00,
2013-01-28 18:58:00,73.7,67.5,29.93,NW,325,0.0,1.0,81,0.00,,---,0.00,VWS V14.01,2013-01-29 04:58:00,
2013-01-28 18:59:00,73.6,67.4,29.93,NW,325,0.0,1.0,81,0.00,,---,0.00,VWS V14.01,2013-01-29 04:59:00,
2013-01-28 19:00:00,73.6,67.4,29.93,NW,325,0.0,1.0,81,0.00,,---,0.00,VWS V14.01,2013-01-29 05:00:00,
2013-01-28 19:01:00,73.5,67.3,29.93,NW,325,0.0,0.0,81,0.00,,---,0.00,VWS V14.01,2013-01-29 05:01:00,
2013-01-28 19:02:00,73.4,67.2,29.93,NW,325,0.0,0.0,81,0.00,,---,0.00,VWS V14.01,2013-01-29 05:02:00,
2013-01-28 19:03:00,73.3,67.5,29.93,NW,325,0.0,0.0,82,0.00,,---,0.00,VWS V14.01,2013-01-29 05:03:00,
2013-01-28 19:04:00,73.3,67.5,29.92,NW,325,0.0,0.0,82,0.00,,---,0.00,VWS V14.01,2013-01-29 05:04:00,
2013-01-28 19:05:00,73.2,67.4,29.92,NW,325,0.0,0.0,82,0.00,,---,0.00,VWS V14.01,2013-01-29 05:05:00,
2013-01-28 19:06:00,73.2,67.4,29.92,NW,325,0.0,0.0,82,0.00,,---,0.00,VWS V14.01,2013-01-29 05:06:00,
2013-01-28 19:07:00,73.1,67.3,29.93,NW,325,0.0,0.0,82,0.00,,---,0.00,VWS V14.01,2013-01-29 05:07:00,
2013-01-28 19:08:00,73.1,66.9,29.93,NW,325,0.0,0.0,81,0.00,,---,0.00,VWS V14.01,2013-01-29 05:08:00,
2013-01-28 19:09:00,73.1,67.3,29.93,NW,325,0.0,0.0,82,0.00,,---,0.00,VWS V14.01,2013-01-29 05:09:00,
2013-01-28 19:10:00,73.1,66.9,29.93,NW,325,0.0,0.0,81,0.00,,---,0.00,VWS V14.01,2013-01-29 05:10:00,
2013-01-28 19:11:00,73.1,66.9,29.93,NW,325,0.0,0.0,81,0.00,,---,0.00,VWS V14.01,2013-01-29 05:11:00,
2013-01-28 19:13:00,73.2,67.0,29.93,NW,325,0.0,0.0,81,0.00,,---,0.00,VWS V14.01,2013-01-29 05:13:00,
2013-01-28 19:14:00,73.3,67.1,29.93,NW,325,0.0,0.0,81,0.00,,---,0.00,VWS V14.01,2013-01-29 05:14:00,
2013-01-28 19:15:00,73.3,67.1,29.93,NW,325,0.0,0.0,81,0.00,,---,0.00,VWS V14.01,2013-01-29 05:15:00,
2013-01-28 19:17:00,73.3,66.8,29.93,NW,325,0.0,0.0,80,0.00,,---,0.00,VWS V14.01,2013-01-29 05:17:00,
2013-01-28 19:18:00,73.3,66.8,29.93,NW,325,0.0,0.0,80,0.00,,---,0.00,VWS V14.01,2013-01-29 05:18:00,
2013-01-28 20:16:00,73.2,67.0,29.93,NW,325,0.0,0.0,81,0.00,,---,0.00,VWS V14.01,2013-01-29 06:16:00,
2013-01-28 20:23:00,73.5,67.0,29.93,NW,325,0.0,0.0,80,0.00,,---,0.00,VWS V14.01,2013-01-29 06:23:00,
2013-01-28 20:28:00,73.5,66.6,29.93,NW,325,0.0,0.0,79,0.00,,---,0.00,VWS V14.01,2013-01-29 06:28:00,
2013-01-28 20:33:00,73.8,67.2,29.93,NW,325,0.0,0.0,80,0.00,,---,0.00,VWS V14.01,2013-01-29 06:33:00,
2013-01-28 20:38:00,73.4,66.9,29.93,NW,325,0.0,0.0,80,0.00,,---,0.00,VWS V14.01,2013-01-29 06:38:00,
2013-01-28 20:43:00,73.0,66.5,29.93,NW,325,0.0,0.0,80,0.00,,---,0.00,VWS V14.01,2013-01-29 06:43:00,
2013-01-28 20:48:00,72.9,66.4,29.93,NW,325,0.0,0.0,80,0.00,,---,0.00,VWS V14.01,2013-01-29 06:48:00,
2013-01-28 20:54:00,72.7,66.2,29.93,NW,325,0.0,1.0,80,0.00,,---,0.00,VWS V14.01,2013-01-29 06:54:00,
2013-01-28 20:59:00,72.6,66.1,29.94,NW,325,0.0,1.0,80,0.00,,---,0.00,VWS V14.01,2013-01-29 06:59:00,
2013-01-28 21:04:00,72.8,65.9,29.93,NW,325,0.0,1.0,79,0.00,,---,0.00,VWS V14.01,2013-01-29 07:04:00,
2013-01-28 21:09:00,73.2,65.9,29.93,NW,325,0.0,0.0,78,0.00,,---,0.00,VWS V14.01,2013-01-29 07:09:00,
2013-01-28 21:14:00,73.5,65.9,29.93,NW,325,0.0,0.0,77,0.00,,---,0.00,VWS V14.01,2013-01-29 07:14:00,
2013-01-28 21:19:00,73.6,65.9,29.93,NW,325,0.0,0.0,77,0.00,,---,0.00,VWS V14.01,2013-01-29 07:19:00,
2013-01-28 21:24:00,73.6,65.6,29.94,NW,325,0.0,0.0,76,0.00,,---,0.00,VWS V14.01,2013-01-29 07:24:00,
2013-01-28 21:29:00,73.7,66.1,29.94,NW,325,0.0,0.0,77,0.00,,---,0.00,VWS V14.01,2013-01-29 07:29:00,
2013-01-28 21:34:00,73.5,65.9,29.94,NW,325,0.0,0.0,77,0.00,,---,0.00,VWS V14.01,2013-01-29 07:34:00,
2013-01-28 21:39:00,73.1,65.8,29.94,NW,325,0.0,0.0,78,0.00,,---,0.00,VWS V14.01,2013-01-29 07:39:00,
2013-01-28 21:44:00,72.7,65.4,29.94,NW,325,1.0,1.0,78,0.00,,---,0.00,VWS V14.01,2013-01-29 07:44:00,
2013-01-28 21:49:00,72.6,65.3,29.94,NW,325,1.0,2.0,78,0.00,,---,0.00,VWS V14.01,2013-01-29 07:49:00,
2013-01-28 21:54:00,72.7,65.1,29.94,East,87,2.0,5.0,77,0.00,,---,0.00,VWS V14.01,2013-01-29 07:54:00,
2013-01-28 21:59:00,73.1,65.1,29.94,East,88,1.0,5.0,76,0.00,,---,0.00,VWS V14.01,2013-01-29 07:59:00,
2013-01-28 22:04:00,73.5,65.1,29.93,East,88,0.0,1.0,75,0.00,,---,0.00,VWS V14.01,2013-01-29 08:04:00,
2013-01-28 22:09:00,73.7,64.9,29.94,East,88,0.0,3.0,74,0.00,,---,0.00,VWS V14.01,2013-01-29 08:09:00,
2013-01-28 22:14:00,73.8,64.6,29.94,East,88,2.0,3.0,73,0.00,,---,0.00,VWS V14.01,2013-01-29 08:14:00,
2013-01-28 22:19:00,73.7,64.5,29.93,East,88,1.0,3.0,73,0.00,,---,0.00,VWS V14.01,2013-01-29 08:19:00,
2013-01-28 22:24:00,73.7,64.5,29.94,East,88,0.0,3.0,73,0.00,,---,0.00,VWS V14.01,2013-01-29 08:24:00,
2013-01-28 22:29:00,73.7,64.1,29.94,East,88,0.0,3.0,72,0.00,,---,0.00,VWS V14.01,2013-01-29 08:29:00,
2013-01-28 22:34:00,73.6,64.4,29.94,East,88,0.0,1.0,73,0.00,,---,0.00,VWS V14.01,2013-01-29 08:34:00,
2013-01-28 22:39:00,73.5,64.3,29.94,East,88,1.0,2.0,73,0.00,,---,0.00,VWS V14.01,2013-01-29 08:39:00,
2013-01-28 22:44:00,73.3,64.1,29.93,East,88,0.0,2.0,73,0.00,,---,0.00,VWS V14.01,2013-01-29 08:44:00,
2013-01-28 22:49:00,73.4,64.2,29.93,East,88,0.0,2.0,73,0.00,,---,0.00,VWS V14.01,2013-01-29 08:49:00,
2013-01-28 22:54:00,73.5,64.3,29.93,East,88,0.0,2.0,73,0.00,,---,0.00,VWS V14.01,2013-01-29 08:54:00,
2013-01-28 22:59:00,73.3,64.1,29.93,East,88,0.0,2.0,73,0.00,,---,0.00,VWS V14.01,2013-01-29 08:59:00,
2013-01-28 23:04:00,73.3,64.5,29.93,East,88,0.0,0.0,74,0.00,,---,0.00,VWS V14.01,2013-01-29 09:04:00,
2013-01-28 23:09:00,73.3,64.1,29.93,East,88,0.0,1.0,73,0.00,,---,0.00,VWS V14.01,2013-01-29 09:09:00,
2013-01-28 23:15:00,72.7,63.9,29.93,East,88,1.0,2.0,74,0.00,,---,0.00,VWS V14.01,2013-01-29 09:15:00,
2013-01-28 23:20:00,72.5,63.8,29.92,East,88,0.0,2.0,74,0.00,,---,0.00,VWS V14.01,2013-01-29 09:20:00,
2013-01-28 23:25:00,72.3,63.9,29.92,East,88,0.0,2.0,75,0.00,,---,0.00,VWS V14.01,2013-01-29 09:25:00,
2013-01-28 23:30:00,72.3,63.6,29.92,East,88,1.0,2.0,74,0.00,,---,0.00,VWS V14.01,2013-01-29 09:30:00,
2013-01-28 23:35:00,72.7,63.9,29.93,ESE,115,0.0,1.0,74,0.00,,---,0.00,VWS V14.01,2013-01-29 09:35:00,
2013-01-28 23:40:00,72.7,63.5,29.93,ESE,109,3.0,3.0,73,0.00,,---,0.00,VWS V14.01,2013-01-29 09:40:00,
2013-01-28 23:45:00,72.8,63.3,29.92,ESE,113,3.0,4.0,72,0.00,,---,0.00,VWS V14.01,2013-01-29 09:45:00,
2013-01-28 23:50:00,72.8,62.9,29.92,ESE,103,1.0,4.0,71,0.00,,---,0.00,VWS V14.01,2013-01-29 09:50:00,
2013-01-28 23:55:00,72.8,62.9,29.92,ESE,104,3.0,4.0,71,0.00,,---,0.00,VWS V14.01,2013-01-29 09:55:00,